Location: Unspecified
(0.0000°N, 0.0000°E)
Time: 12:18:13
(UTC+00:00)

Envisat - Pass Details

Date: 04 December 2021
Orbit: 764 x 766 km, 98.2° (Epoch: 07 December)

Event Time Altitude Azimuth Distance (km) Brightness Sun altitude
Rises 04:04:46 0° 27° (NNE) 3,214 6.3 -24.3°
Reaches altitude 10° 04:07:12 10° 35° (NE) 2,291 5.6 -23.7°
Maximum altitude 04:11:51 37° 102° (ESE) 1,167 4.5 -22.6°
Drops below altitude 10° 04:16:30 10° 169° (S) 2,301 5.9 -21.6°
Sets 04:18:57 0° 177° (S) 3,229 6.6 -21.0°
